Skip Page Navigation
NASA JPL Caltech
NASA Logo - Jet Propulsion Laboratory + View the NASA Portal
+ Center for Near-Earth Object Studies
JPL Home Earth Solar System Stars & Galaxies Technology
JPL Solar System Dynamics
BODIES ORBITS EPHEMERIDES TOOLS PHYSICAL DATA DISCOVERY FAQ SITE MAP
IMPORTANT: The SSD Announcement email list is now available. Major changes are coming in the near future, including possible hostname and/or URL changes. To be notified of such changes, subscribe to this email list.

Please visit this page for more details.


JPL Small-Body Database Browser
Search: [ help ]  
452543 (2004 TC369)
Classification: Main-belt Asteroid          SPK-ID: 2452543
Ephemeris | Orbit Diagram | Orbital Elements | Mission Design | Physical Parameters | Discovery Circumstances ]

[ show orbit diagram ]
Orbital Elements at Epoch 2458600.5 (2019-Apr-27.0) TDB
Reference: JPL 10 (heliocentric ecliptic J2000)
 Element Value Uncertainty (1-sigma)   Units 
e .181208005327046 8.7646e-08  
a 2.34441812445061 2.333e-08 au
q 1.919590792466341 2.0935e-07 au
i 9.306990126843205 1.3721e-05 deg
node 224.1546286492214 7.2405e-05 deg
peri 216.6300476869977 8.3347e-05 deg
M 348.3125330022645 4.2333e-05 deg
tp 2458643.066596726517
(2019-Jun-08.56659673)
0.00015447 TDB
period 1311.145933033661
3.59
1.9572e-05
5.359e-08
d
yr
n .2745689788832665 4.0985e-09 deg/d
Q 2.76924545643488 2.7558e-08 au
  Orbit Determination Parameters
   # obs. used (total)      69  
   data-arc span      6572 days (17.99 yr)  
   first obs. used      2000-10-02  
   last obs. used      2018-09-30  
   planetary ephem.      DE431  
   SB-pert. ephem.      SB431-N16  
   condition code      0  
   norm. resid. RMS      .4941  
   source      ORB  
   producer      Otto Matic  
   solution date      2019-Jul-14 11:00:00  

Additional Information
 Earth MOID = .942999 au 
 Jupiter MOID = 2.52083 au 
 T_jup = 3.522 
[ show covariance matrix ]

Ephemeris | Orbit Diagram | Orbital Elements | Mission Design | Physical Parameters | Discovery Circumstances ]

Physical Parameter Table
Parameter Symbol Value Units Sigma Reference Notes
absolute magnitude H 17.9   n/a MPO456155  

452543 (2004 TC369)          Discovered 2004-Oct-14 by Spacewatch at Kitt Peak
Reference: Last Updated: 2016-01-04
Ephemeris | Orbit Diagram | Orbital Elements | Mission Design | Physical Parameters | Discovery Circumstances ]
ABOUT SSD CREDITS/AWARDS PRIVACY/COPYRIGHT GLOSSARY LINKS
FirstGov 2019-Dec-07 11:56 UT
(server date/time)  
NASA Home Page
Site Manager:   Ryan S. Park
Webmaster  Alan B. Chamberlin